Theta_e
342 349 356 353 352 351 351 350 350 350 350 350 350 346 341 339 339 338 338 338 339 339 339 338 337 337 338 339 340 342 343 346 348 349 348 346 348 349 353 355 354 346 355
344 348 357 354 352 351 350 350 350 350 350 349 348 342 339 338 338 337 337 337 337 338 338 339 337 337 338 339 339 340 342 342 343 346 349 350 349 350 349 351 352 350 353
344 348 351 355 352 351 350 350 348 347 347 348 343 339 337 337 337 336 335 336 337 338 337 337 337 337 337 337 337 338 339 341 343 343 345 343 344 349 351 349 348 350 353
344 345 349 355 353 351 350 347 345 344 343 343 343 338 337 336 337 336 335 334 336 336 337 337 337 337 336 336 336 337 338 340 343 344 337 338 338 351 354 351 349 349 350
345 348 349 354 353 351 348 343 341 339 338 337 337 339 337 338 338 335 334 335 336 336 336 336 337 336 335 335 335 336 337 339 341 341 333 331 333 350 354 352 347 347 349
346 349 353 356 353 349 344 341 339 338 337 338 337 336 337 337 335 334 335 336 335 336 335 335 335 335 335 335 335 335 336 337 340 329 328 333 337 352 351 346 346 346 348
344 347 350 356 351 346 343 340 337 336 336 337 340 340 336 334 334 334 333 334 334 333 333 334 334 334 334 334 335 335 334 335 328 324 328 341 343 350 351 351 350 350 349
342 346 348 353 351 346 342 340 337 334 333 332 333 333 332 333 333 332 331 333 329 329 330 331 332 332 332 332 333 335 335 334 328 325 335 342 347 350 349 348 348 350 351
343 345 346 346 344 344 341 340 337 335 332 329 327 327 329 331 332 331 334 331 328 328 329 331 331 332 332 333 333 334 336 336 324 324 336 339 349 347 346 346 346 346 346
343 345 343 342 337 333 333 340 338 336 333 331 329 330 332 332 335 335 337 332 329 328 330 332 333 334 334 334 336 336 336 339 321 319 336 338 346 343 341 341 340 340 341
324 342 342 339 336 333 330 334 340 338 336 333 332 336 332 327 324 333 335 334 330 331 332 334 335 337 340 338 339 341 338 327 321 327 333 346 343 341 340 339 339 339 338
316 317 338 338 335 332 334 331 329 330 327 326 324 324 322 323 321 330 332 334 333 335 335 339 339 336 328 318 318 334 326 326 320 330 332 343 341 340 338 336 335 335 334
315 320 323 328 333 332 331 329 330 328 328 327 324 323 323 324 322 319 319 321 322 328 319 322 320 319 317 317 317 316 318 318 324 329 335 342 341 337 336 335 334 333 333
317 317 324 328 331 331 333 328 326 322 326 327 323 322 321 322 321 323 318 320 317 317 316 316 317 317 317 318 315 316 317 318 322 327 330 340 342 337 335 334 333 332 331
317 320 325 331 332 329 331 328 325 324 323 328 324 323 322 322 321 323 320 319 317 318 317 316 316 317 317 318 316 316 317 318 320 326 326 337 341 337 333 332 331 330 330
320 320 325 328 329 331 328 327 327 327 325 328 324 324 324 324 321 322 322 319 318 319 319 317 316 316 317 316 320 318 318 319 321 328 330 332 339 337 334 332 329 330 329
322 323 325 325 328 326 328 329 328 325 326 326 325 324 324 322 321 321 322 319 318 321 320 318 317 318 316 317 314 319 320 322 326 322 330 329 332 338 335 333 331 331 330
325 324 324 329 326 325 328 327 325 326 323 322 327 326 325 324 323 320 323 319 320 321 318 317 317 317 316 315 312 314 316 318 319 320 324 327 328 329 333 334 334 332 331
326 324 326 324 324 325 328 326 325 323 320 323 326 325 325 324 325 320 323 324 320 319 318 317 316 316 316 315 313 315 316 318 316 322 319 319 318 320 322 333 335 336 334
327 326 326 327 324 327 329 325 325 323 322 324 327 325 325 324 326 321 322 325 323 319 317 318 316 316 316 315 317 317 314 315 317 315 316 319 317 317 317 317 319 320 332
328 325 326 324 326 327 324 320 320 320 322 324 326 325 324 324 325 321 322 322 320 318 320 317 315 314 314 317 312 312 313 315 315 316 316 316 316 317 317 319 315 319 320
327 326 327 325 324 326 324 323 325 323 322 324 324 325 325 325 324 324 321 320 318 318 318 317 316 314 313 315 312 308 305 309 312 314 316 317 315 316 316 318 316 317 317
328 328 329 327 325 325 324 325 322 323 323 323 323 325 325 327 326 323 322 320 318 319 317 318 316 313 312 316 314 312 306 302 307 312 313 315 316 317 316 318 319 321 319
330 331 330 327 325 327 327 325 323 322 319 322 323 325 324 325 324 325 323 322 320 317 317 318 319 317 314 312 315 317 315 312 307 306 310 313 315 316 315 317 319 322 319
331 330 331 330 329 327 327 328 328 322 325 326 325 323 321 325 325 325 323 321 320 320 319 320 319 318 317 315 314 314 314 314 312 308 308 309 313 314 315 315 316 319 320
332 331 331 331 332 332 331 331 328 325 323 323 323 322 323 324 323 325 323 321 321 322 321 321 321 320 319 318 318 317 315 313 313 310 309 312 311 314 315 316 318 318 319
Wind_Speed
8 11 15 15 11 9 8 8 7 8 7 7 7 9 9 9 9 9 10 10 10 10 10 10 10 10 9 7 8 8 7 6 5 4 2 2 3 5 8 11 14 10 9
15 11 17 17 13 10 8 8 8 8 9 8 8 8 8 9 9 9 10 10 10 9 10 10 10 10 10 10 9 9 8 7 7 6 6 6 7 8 9 8 6 5 6
16 12 14 15 14 12 8 9 9 9 10 10 8 7 8 8 8 9 10 11 10 11 10 10 10 10 10 11 11 10 9 9 8 9 10 4 5 11 10 8 5 4 7
15 9 10 15 13 13 11 10 9 9 8 7 5 6 6 6 7 7 8 8 8 10 10 10 10 9 9 10 10 11 10 10 10 10 5 5 8 13 14 8 6 5 5
15 12 12 16 14 14 13 10 9 7 6 4 2 3 4 5 7 6 6 8 9 10 10 10 10 11 11 10 9 10 12 11 11 11 6 7 7 8 14 10 6 5 4
14 13 16 18 17 15 14 11 8 8 7 6 4 4 4 5 6 6 7 8 9 9 10 10 10 10 11 12 11 11 12 12 12 6 7 10 5 11 11 9 10 7 5
14 11 12 17 19 17 14 12 9 8 7 6 7 6 4 3 3 4 5 5 7 8 9 10 10 11 13 13 13 13 13 12 6 6 6 8 6 11 9 8 5 5 4
16 12 11 16 17 16 14 11 10 8 7 5 4 3 2 2 0 1 1 1 4 5 6 8 10 11 13 15 15 14 14 12 7 6 4 4 9 12 11 11 10 13 11
14 12 9 9 13 16 14 12 10 9 7 4 3 3 4 3 3 4 5 3 3 2 5 8 9 10 12 15 16 15 14 14 4 4 3 3 12 13 13 11 12 13 10
14 14 12 10 8 7 7 14 13 11 9 6 3 4 7 8 8 8 9 7 5 3 6 10 12 12 12 14 18 17 15 14 3 4 6 5 13 14 13 12 12 10 10
11 13 14 13 11 9 7 9 12 13 10 7 4 6 7 3 6 8 10 10 5 5 7 11 13 14 14 12 15 18 13 4 1 5 3 12 12 13 13 11 10 9 7
6 8 12 12 12 10 9 8 6 6 4 4 3 4 3 4 2 6 2 6 7 8 8 9 9 6 9 4 4 9 3 6 1 4 2 12 12 12 11 10 9 8 7
7 5 6 11 10 11 5 4 3 2 4 4 3 5 5 4 5 4 3 3 2 3 3 5 5 3 6 4 5 3 4 5 3 3 6 10 11 11 11 10 8 6 5
9 6 6 7 8 7 4 5 5 4 3 3 4 4 5 2 4 4 2 4 4 3 5 4 3 5 6 6 2 4 5 3 2 3 6 10 10 9 8 8 6 5 2
9 8 7 7 6 5 6 4 4 4 4 5 4 4 5 4 4 3 4 4 4 4 4 4 4 4 6 5 4 1 3 5 1 3 2 9 7 7 6 5 3 2 1
8 8 8 8 6 6 4 5 3 4 3 5 3 5 6 3 2 3 4 3 4 4 4 4 4 4 5 4 6 3 4 5 3 5 3 3 7 6 6 5 2 4 5
9 10 9 8 5 5 4 2 3 2 5 4 4 5 5 5 1 2 2 3 3 4 4 5 6 6 6 5 6 5 3 4 1 5 4 3 4 8 9 6 6 7 7
14 12 10 9 8 6 4 4 3 3 3 2 3 3 5 5 4 2 3 2 3 4 2 4 4 5 5 4 4 6 4 3 4 4 3 3 4 4 7 10 11 10 11
15 12 9 10 9 7 5 4 3 2 1 2 2 4 4 4 4 3 2 2 3 3 3 3 3 2 4 5 4 4 5 2 2 3 4 2 2 4 4 12 13 14 15
14 12 11 7 9 7 5 2 1 2 3 3 4 4 5 2 6 3 3 3 2 2 2 3 2 3 2 3 3 5 4 3 2 1 3 3 3 5 4 4 4 5 11
12 12 10 10 7 6 3 2 2 3 3 3 4 6 6 3 5 3 2 3 3 4 2 1 2 4 4 4 3 5 4 2 2 4 4 4 6 6 6 5 4 4 4
14 12 10 9 8 5 3 3 3 2 2 2 1 3 5 5 1 3 3 3 1 2 3 3 2 3 3 3 2 1 4 5 3 3 3 4 6 4 6 6 6 6 6
13 12 10 8 8 5 5 2 1 3 3 3 2 1 3 5 4 3 4 3 1 1 1 1 2 2 2 4 1 2 4 2 4 3 5 3 6 4 5 6 7 6 7
10 7 8 7 7 4 4 1 2 2 1 3 2 2 3 6 5 3 3 4 4 2 2 2 2 1 1 4 5 2 2 4 2 6 3 4 6 6 6 5 5 6 6
10 8 7 8 8 6 4 3 2 1 2 1 2 3 2 4 6 5 3 5 4 2 2 3 4 3 3 3 3 2 2 3 2 3 7 5 4 5 5 5 5 5 7
9 8 7 7 6 6 7 7 3 1 1 1 2 2 3 4 3 3 3 4 3 3 4 4 5 5 5 4 3 4 3 3 5 3 4 7 8 5 4 5 6 6 5
Wind_Direction
123 137 130 111 103 92 75 61 52 48 48 51 71 85 77 68 58 49 41 35 28 25 27 25 24 17 19 17 7 3 2 349 347 337 319 278 214 199 195 188 188 194 231
140 146 132 117 109 94 77 61 53 46 44 50 81 82 75 67 54 42 34 30 26 26 22 38 30 25 14 8 9 1 352 339 321 301 290 277 253 222 212 215 191 135 106
140 145 120 119 117 108 91 80 67 58 54 65 73 73 61 51 41 33 26 18 16 28 20 21 21 14 8 0 353 351 342 329 314 300 288 279 278 262 217 211 199 163 136
133 125 115 121 119 111 97 86 68 56 48 50 67 71 57 41 26 20 17 16 24 14 11 8 4 3 358 352 347 341 336 331 321 298 292 291 263 255 191 189 171 167 153
121 123 133 132 127 118 111 96 79 65 58 45 65 86 60 24 11 4 18 15 11 3 359 358 1 352 346 344 337 329 326 327 328 330 305 265 282 165 158 158 177 190 184
122 138 146 142 134 126 117 107 91 73 61 45 97 95 58 39 20 37 33 16 357 359 358 352 351 347 340 335 331 325 319 324 327 311 281 231 150 128 145 165 156 184 192
141 147 145 144 134 130 126 117 105 98 87 81 73 82 84 78 57 63 42 9 354 349 352 348 342 336 329 323 316 313 313 320 328 338 316 87 116 131 124 103 127 160 201
140 147 150 142 136 132 129 127 123 116 116 127 132 137 178 160 184 134 170 41 350 341 338 325 326 325 320 314 309 308 311 313 350 331 5 102 113 111 107 106 97 84 67
143 132 133 141 142 139 144 148 144 142 142 159 174 201 228 242 242 228 221 217 238 284 297 307 315 319 319 314 306 305 305 311 347 291 149 82 108 108 104 90 85 79 78
143 142 150 151 144 148 162 167 167 158 161 181 238 268 259 238 226 228 224 226 235 254 299 303 304 306 309 303 299 295 298 300 357 288 132 145 127 115 102 88 76 74 78
129 158 156 157 161 169 175 188 182 165 175 175 249 319 346 190 252 242 241 225 252 274 290 292 296 306 313 316 298 279 295 283 239 167 160 137 120 107 102 98 95 86 71
148 117 163 166 174 171 180 186 184 177 173 164 89 15 356 46 2 26 258 225 275 301 299 310 359 22 353 328 335 330 305 297 96 136 142 139 126 114 110 105 96 87 79
131 114 118 128 176 173 185 150 206 185 168 122 114 57 28 29 20 13 42 349 307 2 338 358 2 1 330 325 329 315 310 359 53 95 151 147 131 132 129 120 112 94 77
118 131 125 106 108 116 134 154 134 113 138 136 112 81 61 37 28 10 9 20 29 8 350 346 332 322 322 317 321 10 357 11 84 148 176 162 147 145 136 129 121 112 88
124 107 116 93 97 89 69 75 101 109 130 128 102 92 72 55 18 9 344 54 23 357 347 347 344 337 326 331 328 10 335 315 12 195 168 169 157 145 146 151 151 137 258
130 123 115 104 101 93 86 94 114 131 116 110 148 122 105 112 26 360 12 46 9 344 340 22 1 351 344 347 347 289 260 292 317 135 168 183 173 161 177 192 191 242 259
137 136 130 130 128 125 131 105 73 39 109 139 152 160 153 146 114 353 64 46 354 343 354 25 4 355 352 340 355 347 325 320 142 121 173 181 188 189 215 201 216 243 265
142 139 147 141 127 124 142 83 60 106 115 157 162 201 164 159 160 45 101 58 334 26 38 29 5 338 336 333 342 323 288 30 15 351 142 152 191 209 223 220 229 237 255
145 143 128 135 135 132 106 89 112 123 138 229 280 177 162 143 173 98 68 166 33 75 54 27 332 8 323 315 335 341 315 321 17 57 32 49 188 180 209 227 227 232 247
147 133 130 129 135 135 117 91 288 185 247 239 245 168 178 146 138 84 34 3 73 51 28 25 345 338 291 282 323 324 303 275 141 342 293 290 269 268 243 231 234 251 266
136 133 128 126 141 130 125 156 255 242 234 253 248 167 159 135 155 116 109 67 40 38 79 8 320 350 334 337 354 328 307 269 70 318 292 266 274 269 268 232 243 244 246
144 140 131 137 149 148 155 200 208 194 226 190 154 142 140 134 153 152 154 136 109 81 347 323 12 331 305 9 0 341 349 337 330 291 315 278 267 275 268 263 268 238 235
148 145 142 147 151 157 193 195 332 7 6 353 334 133 176 160 210 170 173 167 178 97 23 331 94 64 328 316 41 139 350 281 317 317 317 305 295 296 286 289 274 272 257
140 123 125 132 145 183 204 212 189 201 238 250 153 145 188 178 189 185 215 170 170 203 341 291 217 223 82 299 333 13 173 198 284 324 325 313 320 324 306 292 282 282 268
126 136 137 140 153 191 223 198 291 334 307 30 132 179 231 212 201 198 198 154 150 202 266 251 279 263 232 227 231 288 303 306 240 198 301 303 299 285 286 276 290 278 274
145 142 147 158 177 193 187 193 203 301 335 58 327 317 282 255 204 205 184 151 189 222 249 265 262 247 247 243 246 258 233 239 279 259 276 295 283 282 280 284 294 290 282